Regional Weather Roundup
Issued by NWS

Home | Current Version | Previous Version | Text Only | Print | Product List | Glossary On
Versions: 1 2 3 4 5 6 7 8 9 10 11 12 13 14 15 16 17 18 19 20 21 22 23 24 25 26 27 28 29 30 31 32 33 34 35 36 37 38 39 40 41 42 43 44 45 46 47 48 49 50
000
ASUS43 KLSX 201657
RWRMO

WEATHER SUMMARY FOR MISSOURI
NATIONAL WEATHER SERVICE SPRINGFIELD MO
1200 PM CDT SUN AUG 20 2017

NOTE: "FAIR" INDICATES FEW OR NO CLOUDS BELOW 12,000 FEET WITH NO
       SIGNIFICANT WEATHER AND/OR OBSTRUCTIONS TO VISIBILITY.
       CURRENT SKY AND/OR WEATHER CONDITIONS ARE NOT AVAILABLE FOR
       CHILLICOTHE AND FARMINGTON.

MOZ001>031-035>038-043-044-053-054-201800-
...NORTHERN AND WESTERN MISSOURI...

CITY           SKY/WX    TMP DP  RH WIND       PRES   REMARKS
KANSAS CTY INT MOSUNNY   81  69  67 SE15      30.01S
LEE`S SUMMIT   SUNNY     82  69  64 SE14      30.02S
ST JOSEPH      CLOUDY    81  69  67 S13       29.98R
CHILLICOTHE      N/A     82  71  69 S6        29.97R

$$
MOZ066>068-077>081-088>096-101>105-201800-
...SOUTHWEST MISSOURI...

CITY           SKY/WX    TMP DP  RH WIND       PRES   REMARKS
SPRINGFIELD    PTSUNNY   83  70  64 E15G23    30.07S
JOPLIN         SUNNY     91  77  63 S10       30.03F HX 104
BRANSON        PTSUNNY   90  73  58 S7        30.09F HX  98

$$
MOZ032>034-039>042-045>050-055>058-069>072-201800-
...CENTRAL MISSOURI...

CITY           SKY/WX    TMP DP  RH WIND       PRES   REMARKS
COLUMBIA       NOT AVBL
JEFFERSON CITY MOSUNNY   82  69  64 E6        30.04F
ROLLA          MOSUNNY   81  69  67 E7        30.10R
SEDALIA        SUNNY     82  71  69 SE10      30.05F
WARRENSBURG    SUNNY     81  68  65 SE9       30.03F

$$
MOZ051-052-059>065-201800-
...EAST CENTRAL MISSOURI...

CITY           SKY/WX    TMP DP  RH WIND       PRES   REMARKS
ST LOUIS INTL  CLOUDY    85  68  56 N13       30.06F

$$
MOZ072>076-082>087-097>100-106>115-201800-
...SOUTH CENTRAL AND SOUTHEAST MISSOURI...

CITY           SKY/WX    TMP DP  RH WIND       PRES   REMARKS
CAPE GIRARDEAU SUNNY     89  75  63 CALM      30.05F HX  99
POPLAR BLUFF   SUNNY     90  78  68 S6        30.05F HX 104
WEST PLAINS    CLOUDY    74  70  87 NW8       30.11S

$$



USA.gov is the U.S. government's official web portal to all federal, state and local government web resources and services.